,,PressureMeas_1m,,PRMeasQMR101_1,,RHStat155_1m_1,,SRMeasQMS101R_1m,,TAStat155_1m_1,,GenWind_1,,GenWind_1,
2019-02-15, 00:00:06,VALID,919.781,VALID,0.0,VALID,86.181,VALID,-0.004,VALID,21.758,VALID,95.0,VALID,2.54,
2019-02-15, 00:01:06,VALID,919.796,VALID,0.0,VALID,86.31,VALID,0.013,VALID,21.737,VALID,93.0,VALID,2.554,
2019-02-15, 00:02:06,VALID,919.807,VALID,0.0,VALID,86.547,VALID,-0.007,VALID,21.693,VALID,92.0,VALID,2.828,
2019-02-15, 00:03:06,VALID,919.81,VALID,0.0,VALID,86.414,VALID,-0.0,VALID,21.698,VALID,99.0,VALID,3.279,
2019-02-15, 00:04:06,VALID,919.828,VALID,0.0,VALID,86.199,VALID,0.001,VALID,21.739,VALID,98.0,VALID,3.295,
2019-02-15, 00:05:06,VALID,919.85,VALID,0.0,VALID,86.017,VALID,0.004,VALID,21.775,VALID,93.0,VALID,2.973,
2019-02-15, 00:06:06,VALID,919.876,VALID,0.0,VALID,86.231,VALID,-0.001,VALID,21.751,VALID,97.0,VALID,2.871,
2019-02-15, 00:07:06,VALID,919.901,VALID,0.0,VALID,86.347,VALID,0.008,VALID,21.73,VALID,88.0,VALID,2.461,
2019-02-15, 00:08:06,VALID,919.917,VALID,0.0,VALID,86.568,VALID,-0.002,VALID,21.699,VALID,88.0,VALID,2.273,
2019-02-15, 00:09:06,VALID,919.896,VALID,0.0,VALID,86.532,VALID,-0.018,VALID,21.707,VALID,100.0,VALID,3.028,
2019-02-15, 00:10:06,VALID,919.908,VALID,0.0,VALID,86.474,VALID,-0.009,VALID,21.735,VALID,90.0,VALID,2.596,
2019-02-15, 00:11:06,VALID,919.913,VALID,0.0,VALID,86.368,VALID,-0.005,VALID,21.738,VALID,98.0,VALID,3.154,
2019-02-15, 00:12:06,VALID,919.89,VALID,0.0,VALID,85.976,VALID,-0.017,VALID,21.803,VALID,103.0,VALID,3.118,
2019-02-15, 00:13:06,VALID,919.876,VALID,0.0,VALID,85.514,VALID,-0.005,VALID,21.894,VALID,89.0,VALID,2.407,
2019-02-15, 00:14:06,VALID,919.878,VALID,0.0,VALID,85.931,VALID,0.016,VALID,21.86,VALID,79.0,VALID,1.989,
2019-02-15, 00:15:06,VALID,919.874,VALID,0.0,VALID,86.782,VALID,0.007,VALID,21.721,VALID,75.0,VALID,1.805,
2019-02-15, 00:16:06,VALID,919.857,VALID,0.0,VALID,87.144,VALID,-0.003,VALID,21.64,VALID,71.0,VALID,2.142,
2019-02-15, 00:17:06,VALID,919.839,VALID,0.0,VALID,87.293,VALID,0.004,VALID,21.623,VALID,78.0,VALID,1.923,
2019-02-15, 00:18:06,VALID,919.812,VALID,0.0,VALID,87.515,VALID,-0.01,VALID,21.602,VALID,78.0,VALID,1.844,
2019-02-15, 00:19:06,VALID,919.785,VALID,0.0,VALID,87.476,VALID,0.018,VALID,21.591,VALID,82.0,VALID,1.804,
2019-02-15, 00:20:06,VALID,919.754,VALID,0.0,VALID,87.378,VALID,0.016,VALID,21.595,VALID,90.0,VALID,2.33,
2019-02-15, 00:21:06,VALID,919.757,VALID,0.0,VALID,87.194,VALID,0.014,VALID,21.648,VALID,81.0,VALID,1.88,
2019-02-15, 00:22:06,VALID,919.714,VALID,0.0,VALID,87.338,VALID,0.005,VALID,21.632,VALID,91.0,VALID,1.73,
2019-02-15, 00:23:06,VALID,919.72,VALID,0.0,VALID,87.303,VALID,0.006,VALID,21.623,VALID,99.0,VALID,1.445,
2019-02-15, 00:24:06,VALID,919.73,VALID,0.0,VALID,87.051,VALID,0.002,VALID,21.639,VALID,82.0,VALID,1.614,
2019-02-15, 00:25:06,VALID,919.743,VALID,0.0,VALID,87.02,VALID,0.008,VALID,21.662,VALID,98.0,VALID,2.426,
2019-02-15, 00:26:06,VALID,919.745,VALID,0.0,VALID,86.631,VALID,0.006,VALID,21.715,VALID,98.0,VALID,2.672,
2019-02-15, 00:27:06,VALID,919.753,VALID,0.0,VALID,86.598,VALID,0.02,VALID,21.755,VALID,97.0,VALID,1.673,
2019-02-15, 00:28:06,VALID,919.758,VALID,0.0,VALID,86.763,VALID,-0.081,VALID,21.723,VALID,98.0,VALID,1.873,
2019-02-15, 00:29:06,VALID,919.746,VALID,0.0,VALID,86.744,VALID,-0.076,VALID,21.711,VALID,96.0,VALID,2.344,
2019-02-15, 00:30:06,VALID,919.75,VALID,0.0,VALID,86.57,VALID,-0.081,VALID,21.742,VALID,91.0,VALID,2.114,
2019-02-15, 00:31:06,VALID,919.73,VALID,0.0,VALID,86.571,VALID,-0.075,VALID,21.762,VALID,88.0,VALID,1.824,
2019-02-15, 00:32:06,VALID,919.716,VALID,0.0,VALID,86.485,VALID,-0.09,VALID,21.768,VALID,96.0,VALID,1.971,
2019-02-15, 00:33:06,VALID,919.707,VALID,0.0,VALID,86.386,VALID,-0.082,VALID,21.785,VALID,98.0,VALID,2.488,
2019-02-15, 00:34:06,VALID,919.686,VALID,0.0,VALID,86.036,VALID,-0.063,VALID,21.84,VALID,94.0,VALID,2.316,
2019-02-15, 00:35:06,VALID,919.687,VALID,0.0,VALID,86.096,VALID,-0.074,VALID,21.848,VALID,99.0,VALID,2.227,
2019-02-15, 00:36:06,VALID,919.689,VALID,0.0,VALID,86.147,VALID,-0.067,VALID,21.838,VALID,103.0,VALID,2.186,
2019-02-15, 00:37:06,VALID,919.689,VALID,0.0,VALID,85.925,VALID,-0.075,VALID,21.857,VALID,90.0,VALID,2.455,
2019-02-15, 00:38:06,VALID,919.687,VALID,0.0,VALID,85.946,VALID,-0.073,VALID,21.867,VALID,89.0,VALID,1.962,
2019-02-15, 00:39:06,VALID,919.661,VALID,0.0,VALID,86.194,VALID,-0.082,VALID,21.839,VALID,91.0,VALID,1.861,
2019-02-15, 00:40:06,VALID,919.672,VALID,0.0,VALID,86.359,VALID,-0.079,VALID,21.794,VALID,89.0,VALID,2.046,
2019-02-15, 00:41:06,VALID,919.666,VALID,0.0,VALID,86.563,VALID,-0.092,VALID,21.776,VALID,81.0,VALID,1.592,
2019-02-15, 00:42:06,VALID,919.646,VALID,0.0,VALID,86.747,VALID,-0.071,VALID,21.737,VALID,100.0,VALID,1.664,
2019-02-15, 00:43:06,VALID,919.647,VALID,0.0,VALID,86.875,VALID,-0.017,VALID,21.722,VALID,112.0,VALID,1.635,
2019-02-15, 00:44:06,VALID,919.622,VALID,0.0,VALID,86.507,VALID,-0.015,VALID,21.758,VALID,108.0,VALID,1.904,
2019-02-15, 00:45:06,VALID,919.627,VALID,0.0,VALID,86.245,VALID,-0.007,VALID,21.815,VALID,106.0,VALID,2.376,
2019-02-15, 00:46:06,VALID,919.631,VALID,0.0,VALID,85.872,VALID,-0.008,VALID,21.874,VALID,99.0,VALID,2.396,
2019-02-15, 00:47:06,VALID,919.619,VALID,0.0,VALID,85.731,VALID,-0.019,VALID,21.9,VALID,101.0,VALID,2.37,
2019-02-15, 00:48:06,VALID,919.597,VALID,0.0,VALID,85.941,VALID,-0.027,VALID,21.872,VALID,107.0,VALID,2.343,
2019-02-15, 00:49:06,VALID,919.604,VALID,0.0,VALID,86.073,VALID,-0.022,VALID,21.85,VALID,96.0,VALID,2.458,
2019-02-15, 00:50:06,VALID,919.602,VALID,0.0,VALID,86.371,VALID,-0.014,VALID,21.815,VALID,99.0,VALID,2.368,
2019-02-15, 00:51:06,VALID,919.612,VALID,0.0,VALID,86.508,VALID,-0.028,VALID,21.785,VALID,87.0,VALID,2.153,
2019-02-15, 00:52:06,VALID,919.604,VALID,0.0,VALID,86.566,VALID,-0.013,VALID,21.771,VALID,100.0,VALID,2.889,
2019-02-15, 00:53:06,VALID,919.58,VALID,0.0,VALID,86.241,VALID,-0.007,VALID,21.818,VALID,98.0,VALID,2.961,
2019-02-15, 00:54:06,VALID,919.578,VALID,0.0,VALID,86.312,VALID,-0.013,VALID,21.834,VALID,96.0,VALID,2.69,
2019-02-15, 00:55:06,VALID,919.564,VALID,0.0,VALID,86.382,VALID,-0.029,VALID,21.82,VALID,94.0,VALID,2.302,
2019-02-15, 00:56:06,VALID,919.543,VALID,0.0,VALID,86.333,VALID,-0.001,VALID,21.828,VALID,89.0,VALID,2.224,
2019-02-15, 00:57:06,VALID,919.518,VALID,0.0,VALID,86.35,VALID,-0.011,VALID,21.833,VALID,104.0,VALID,2.463,
2019-02-15, 00:58:06,VALID,919.476,VALID,0.0,VALID,86.214,VALID,0.017,VALID,21.85,VALID,107.0,VALID,2.661,
2019-02-15, 00:59:06,VALID,919.44,VALID,0.0,VALID,85.823,VALID,-0.014,VALID,21.906,VALID,107.0,VALID,1.686,
2019-02-15, 01:00:06,VALID,919.438,VALID,0.0,VALID,85.789,VALID,-0.003,VALID,21.927,VALID,105.0,VALID,2.355,
2019-02-15, 01:01:06,VALID,919.426,VALID,0.0,VALID,85.84,VALID,-0.006,VALID,21.916,VALID,105.0,VALID,1.43,
2019-02-15, 01:02:06,VALID,919.412,VALID,0.0,VALID,85.9,VALID,0.0,VALID,21.908,VALID,132.0,VALID,0.76,
2019-02-15, 01:03:06,VALID,919.408,VALID,0.0,VALID,85.947,VALID,-0.012,VALID,21.897,VALID,92.0,VALID,1.73,
2019-02-15, 01:04:06,VALID,919.387,VALID,0.0,VALID,86.031,VALID,-0.005,VALID,21.879,VALID,102.0,VALID,1.243,
2019-02-15, 01:05:06,VALID,919.379,VALID,0.0,VALID,86.079,VALID,0.01,VALID,21.866,VALID,107.0,VALID,1.499,
2019-02-15, 01:06:06,VALID,919.362,VALID,0.0,VALID,86.132,VALID,0.012,VALID,21.861,VALID,103.0,VALID,1.86,
2019-02-15, 01:07:06,VALID,919.328,VALID,0.0,VALID,86.062,VALID,0.009,VALID,21.864,VALID,105.0,VALID,2.04,
2019-02-15, 01:08:06,VALID,919.294,VALID,0.0,VALID,86.106,VALID,0.014,VALID,21.868,VALID,107.0,VALID,1.594,
2019-02-15, 01:09:06,VALID,919.278,VALID,0.0,VALID,86.15,VALID,0.007,VALID,21.862,VALID,110.0,VALID,0.757,
2019-02-15, 01:10:06,VALID,919.258,VALID,0.0,VALID,85.942,VALID,0.016,VALID,21.881,VALID,102.0,VALID,0.876,
2019-02-15, 01:11:06,VALID,919.261,VALID,0.0,VALID,86.18,VALID,0.005,VALID,21.872,VALID,107.0,VALID,1.108,
2019-02-15, 01:12:06,VALID,919.267,VALID,0.0,VALID,86.216,VALID,0.003,VALID,21.85,VALID,115.0,VALID,0.697,
2019-02-15, 01:13:06,VALID,919.269,VALID,0.0,VALID,86.464,VALID,-0.014,VALID,21.825,VALID,111.0,VALID,0.898,
2019-02-15, 01:14:06,VALID,919.287,VALID,0.0,VALID,86.571,VALID,0.005,VALID,21.783,VALID,106.0,VALID,1.211,
2019-02-15, 01:15:06,VALID,919.292,VALID,0.0,VALID,86.709,VALID,-0.012,VALID,21.754,VALID,105.0,VALID,1.52,
2019-02-15, 01:16:06,VALID,919.289,VALID,0.0,VALID,86.874,VALID,-0.008,VALID,21.738,VALID,112.0,VALID,1.673,
2019-02-15, 01:17:06,VALID,919.292,VALID,0.0,VALID,86.945,VALID,-0.006,VALID,21.723,VALID,111.0,VALID,1.377,
2019-02-15, 01:18:06,VALID,919.278,VALID,0.0,VALID,87.017,VALID,-0.011,VALID,21.728,VALID,107.0,VALID,1.158,
2019-02-15, 01:19:06,VALID,919.265,VALID,0.0,VALID,87.162,VALID,-0.008,VALID,21.713,VALID,109.0,VALID,1.496,
2019-02-15, 01:20:06,VALID,919.241,VALID,0.0,VALID,87.2,VALID,-0.01,VALID,21.701,VALID,113.0,VALID,1.458,
2019-02-15, 01:21:06,VALID,919.212,VALID,0.0,VALID,87.266,VALID,-0.021,VALID,21.701,VALID,78.0,VALID,0.929,
2019-02-15, 01:22:07,VALID,919.167,VALID,0.0,VALID,87.307,VALID,-0.018,VALID,21.697,VALID,119.0,VALID,1.214,
2019-02-15, 01:23:07,VALID,919.155,VALID,0.0,VALID,87.219,VALID,-0.012,VALID,21.708,VALID,121.0,VALID,0.689,
2019-02-15, 01:24:07,VALID,919.159,VALID,0.0,VALID,87.204,VALID,-0.018,VALID,21.708,VALID,99.0,VALID,1.725,
2019-02-15, 01:25:07,VALID,919.146,VALID,0.0,VALID,87.383,VALID,-0.014,VALID,21.675,VALID,93.0,VALID,1.283,
2019-02-15, 01:26:07,VALID,919.159,VALID,0.0,VALID,87.714,VALID,-0.017,VALID,21.635,VALID,91.0,VALID,2.591,
2019-02-15, 01:27:07,VALID,919.165,VALID,0.0,VALID,87.798,VALID,-0.022,VALID,21.608,VALID,97.0,VALID,2.728,
2019-02-15, 01:28:07,VALID,919.138,VALID,0.0,VALID,87.885,VALID,0.021,VALID,21.618,VALID,100.0,VALID,2.343,
2019-02-15, 01:29:07,VALID,919.119,VALID,0.0,VALID,87.919,VALID,0.007,VALID,21.616,VALID,104.0,VALID,2.016,
2019-02-15, 01:30:07,VALID,919.11,VALID,0.0,VALID,87.601,VALID,0.005,VALID,21.642,VALID,102.0,VALID,2.514,
2019-02-15, 01:31:07,VALID,919.104,VALID,0.0,VALID,87.4,VALID,-0.005,VALID,21.699,VALID,104.0,VALID,2.223,
2019-02-15, 01:32:07,VALID,919.094,VALID,0.0,VALID,87.334,VALID,-0.005,VALID,21.716,VALID,107.0,VALID,2.11,
2019-02-15, 01:33:07,VALID,919.065,VALID,0.0,VALID,87.091,VALID,0.002,VALID,21.738,VALID,105.0,VALID,2.115,
2019-02-15, 01:34:07,VALID,919.04,VALID,0.0,VALID,86.934,VALID,0.02,VALID,21.772,VALID,106.0,VALID,1.87,
2019-02-15, 01:35:07,VALID,919.025,VALID,0.0,VALID,86.709,VALID,0.018,VALID,21.806,VALID,102.0,VALID,1.912,
2019-02-15, 01:36:07,VALID,918.997,VALID,0.0,VALID,86.527,VALID,-0.002,VALID,21.834,VALID,104.0,VALID,1.986,
2019-02-15, 01:37:07,VALID,918.972,VALID,0.0,VALID,86.427,VALID,0.002,VALID,21.849,VALID,104.0,VALID,1.75,
2019-02-15, 01:38:07,VALID,918.959,VALID,0.0,VALID,86.408,VALID,-0.014,VALID,21.851,VALID,100.0,VALID,1.852,
2019-02-15, 01:39:07,VALID,918.947,VALID,0.0,VALID,86.317,VALID,0.013,VALID,21.853,VALID,100.0,VALID,2.116,
2019-02-15, 01:40:07,VALID,918.964,VALID,0.0,VALID,86.28,VALID,0.014,VALID,21.861,VALID,98.0,VALID,2.422,
2019-02-15, 01:41:07,VALID,918.949,VALID,0.0,VALID,86.244,VALID,-0.003,VALID,21.867,VALID,107.0,VALID,2.804,
2019-02-15, 01:42:07,VALID,918.935,VALID,0.0,VALID,86.025,VALID,0.006,VALID,21.909,VALID,106.0,VALID,2.088,
2019-02-15, 01:43:07,VALID,918.945,VALID,0.0,VALID,86.041,VALID,-0.006,VALID,21.913,VALID,101.0,VALID,1.966,
2019-02-15, 01:44:07,VALID,918.939,VALID,0.0,VALID,86.139,VALID,-0.018,VALID,21.905,VALID,99.0,VALID,1.884,
2019-02-15, 01:45:07,VALID,918.912,VALID,0.0,VALID,86.276,VALID,-0.009,VALID,21.875,VALID,101.0,VALID,1.935,
2019-02-15, 01:46:07,VALID,918.902,VALID,0.0,VALID,86.424,VALID,-0.02,VALID,21.856,VALID,108.0,VALID,1.676,
2019-02-15, 01:47:07,VALID,918.89,VALID,0.0,VALID,86.372,VALID,-0.014,VALID,21.853,VALID,108.0,VALID,1.786,
2019-02-15, 01:48:07,VALID,918.876,VALID,0.0,VALID,86.417,VALID,-0.004,VALID,21.862,VALID,109.0,VALID,1.634,
2019-02-15, 01:49:07,VALID,918.856,VALID,0.0,VALID,86.284,VALID,-0.02,VALID,21.866,VALID,107.0,VALID,1.639,
2019-02-15, 01:50:07,VALID,918.84,VALID,0.0,VALID,86.195,VALID,-0.014,VALID,21.882,VALID,106.0,VALID,1.979,
2019-02-15, 01:51:07,VALID,918.825,VALID,0.0,VALID,86.115,VALID,-0.005,VALID,21.909,VALID,97.0,VALID,1.75,
2019-02-15, 01:52:07,VALID,918.805,VALID,0.0,VALID,86.198,VALID,-0.0,VALID,21.89,VALID,102.0,VALID,2.009,
2019-02-15, 01:53:07,VALID,918.776,VALID,0.0,VALID,86.404,VALID,-0.014,VALID,21.862,VALID,96.0,VALID,2.042,
2019-02-15, 01:54:07,VALID,918.779,VALID,0.0,VALID,86.467,VALID,-0.019,VALID,21.849,VALID,93.0,VALID,2.071,
2019-02-15, 01:55:07,VALID,918.748,VALID,0.0,VALID,86.388,VALID,-0.026,VALID,21.858,VALID,97.0,VALID,2.331,
2019-02-15, 01:56:07,VALID,918.719,VALID,0.0,VALID,86.317,VALID,-0.008,VALID,21.877,VALID,97.0,VALID,2.06,
2019-02-15, 01:57:07,VALID,918.712,VALID,0.0,VALID,86.586,VALID,-0.007,VALID,21.848,VALID,99.0,VALID,2.159,
2019-02-15, 01:58:07,VALID,918.689,VALID,0.0,VALID,86.475,VALID,0.024,VALID,21.835,VALID,91.0,VALID,2.379,
2019-02-15, 01:59:07,VALID,918.67,VALID,0.0,VALID,86.61,VALID,0.034,VALID,21.838,VALID,92.0,VALID,1.975,
2019-02-15, 02:00:07,VALID,918.671,VALID,0.0,VALID,86.62,VALID,0.016,VALID,21.817,VALID,94.0,VALID,2.169,
2019-02-15, 02:01:07,VALID,918.679,VALID,0.0,VALID,86.557,VALID,0.005,VALID,21.827,VALID,104.0,VALID,2.182,
2019-02-15, 02:02:07,VALID,918.649,VALID,0.0,VALID,86.457,VALID,0.019,VALID,21.847,VALID,101.0,VALID,2.259,
2019-02-15, 02:03:07,VALID,918.652,VALID,0.0,VALID,86.561,VALID,0.031,VALID,21.847,VALID,116.0,VALID,1.353,
2019-02-15, 02:04:07,VALID,918.648,VALID,0.0,VALID,86.814,VALID,0.035,VALID,21.825,VALID,109.0,VALID,1.561,
2019-02-15, 02:05:07,VALID,918.647,VALID,0.0,VALID,86.925,VALID,0.013,VALID,21.791,VALID,104.0,VALID,1.027,
2019-02-15, 02:06:07,VALID,918.647,VALID,0.0,VALID,87.049,VALID,0.014,VALID,21.768,VALID,103.0,VALID,1.659,
2019-02-15, 02:07:07,VALID,918.641,VALID,0.0,VALID,87.064,VALID,0.033,VALID,21.755,VALID,100.0,VALID,1.898,
2019-02-15, 02:08:07,VALID,918.627,VALID,0.0,VALID,87.053,VALID,0.029,VALID,21.745,VALID,95.0,VALID,2.178,
2019-02-15, 02:09:07,VALID,918.598,VALID,0.0,VALID,87.064,VALID,0.032,VALID,21.753,VALID,84.0,VALID,2.069,
2019-02-15, 02:10:07,VALID,918.571,VALID,0.0,VALID,87.069,VALID,0.025,VALID,21.747,VALID,94.0,VALID,2.494,
2019-02-15, 02:11:07,VALID,918.528,VALID,0.0,VALID,87.042,VALID,0.026,VALID,21.756,VALID,97.0,VALID,2.616,
2019-02-15, 02:12:07,VALID,918.518,VALID,0.0,VALID,86.995,VALID,0.019,VALID,21.763,VALID,96.0,VALID,2.414,
2019-02-15, 02:13:07,VALID,918.503,VALID,0.0,VALID,87.171,VALID,-0.007,VALID,21.736,VALID,95.0,VALID,2.525,
2019-02-15, 02:14:07,VALID,918.491,VALID,0.0,VALID,87.407,VALID,-0.006,VALID,21.705,VALID,92.0,VALID,2.23,
2019-02-15, 02:15:07,VALID,918.479,VALID,0.0,VALID,87.623,VALID,0.006,VALID,21.655,VALID,94.0,VALID,2.398,
2019-02-15, 02:16:07,VALID,918.471,VALID,0.0,VALID,87.629,VALID,-0.013,VALID,21.652,VALID,89.0,VALID,2.668,
2019-02-15, 02:17:07,VALID,918.482,VALID,0.0,VALID,87.704,VALID,-0.007,VALID,21.65,VALID,91.0,VALID,2.235,
2019-02-15, 02:18:07,VALID,918.465,VALID,0.0,VALID,87.67,VALID,0.005,VALID,21.646,VALID,93.0,VALID,2.464,
2019-02-15, 02:19:07,VALID,918.469,VALID,0.0,VALID,87.657,VALID,0.018,VALID,21.656,VALID,87.0,VALID,2.175,
2019-02-15, 02:20:07,VALID,918.465,VALID,0.0,VALID,87.82,VALID,0.004,VALID,21.643,VALID,81.0,VALID,2.001,
2019-02-15, 02:21:07,VALID,918.452,VALID,0.0,VALID,88.109,VALID,0.014,VALID,21.602,VALID,83.0,VALID,1.466,
2019-02-15, 02:22:07,VALID,918.467,VALID,0.0,VALID,88.258,VALID,-0.009,VALID,21.556,VALID,85.0,VALID,1.79,
2019-02-15, 02:23:07,VALID,918.467,VALID,0.0,VALID,88.45,VALID,0.007,VALID,21.521,VALID,95.0,VALID,1.854,
2019-02-15, 02:24:07,VALID,918.47,VALID,0.0,VALID,88.499,VALID,-0.002,VALID,21.503,VALID,92.0,VALID,1.877,
2019-02-15, 02:25:07,VALID,918.464,VALID,0.0,VALID,88.624,VALID,0.003,VALID,21.486,VALID,88.0,VALID,1.744,
2019-02-15, 02:26:07,VALID,918.441,VALID,0.0,VALID,88.735,VALID,-0.001,VALID,21.472,VALID,84.0,VALID,1.462,
2019-02-15, 02:27:07,VALID,918.431,VALID,0.0,VALID,88.867,VALID,-0.004,VALID,21.453,VALID,87.0,VALID,1.32,
2019-02-15, 02:28:07,VALID,918.407,VALID,0.0,VALID,88.987,VALID,-0.014,VALID,21.442,VALID,81.0,VALID,0.939,
2019-02-15, 02:29:07,VALID,918.384,VALID,0.0,VALID,89.129,VALID,0.002,VALID,21.417,VALID,91.0,VALID,1.037,
2019-02-15, 02:30:07,VALID,918.343,VALID,0.0,VALID,89.214,VALID,0.009,VALID,21.388,VALID,101.0,VALID,1.277,
2019-02-15, 02:31:07,VALID,918.306,VALID,0.0,VALID,89.181,VALID,0.003,VALID,21.377,VALID,104.0,VALID,1.341,
2019-02-15, 02:32:07,VALID,918.26,VALID,0.0,VALID,89.04,VALID,-0.009,VALID,21.4,VALID,109.0,VALID,1.556,
2019-02-15, 02:33:07,VALID,918.235,VALID,0.0,VALID,88.885,VALID,-0.001,VALID,21.435,VALID,106.0,VALID,1.77,
2019-02-15, 02:34:07,VALID,918.232,VALID,0.0,VALID,88.762,VALID,-0.022,VALID,21.445,VALID,97.0,VALID,2.078,
2019-02-15, 02:35:07,VALID,918.211,VALID,0.0,VALID,88.712,VALID,-0.009,VALID,21.436,VALID,93.0,VALID,1.874,
2019-02-15, 02:36:07,VALID,918.221,VALID,0.0,VALID,88.838,VALID,-0.007,VALID,21.385,VALID,94.0,VALID,2.14,
2019-02-15, 02:37:07,VALID,918.22,VALID,0.0,VALID,88.905,VALID,-0.014,VALID,21.369,VALID,96.0,VALID,2.046,
2019-02-15, 02:38:07,VALID,918.22,VALID,0.0,VALID,88.964,VALID,-0.016,VALID,21.356,VALID,90.0,VALID,2.026,
2019-02-15, 02:39:07,VALID,918.203,VALID,0.0,VALID,89.149,VALID,-0.005,VALID,21.335,VALID,96.0,VALID,2.721,
2019-02-15, 02:40:07,VALID,918.199,VALID,0.0,VALID,89.323,VALID,-0.001,VALID,21.316,VALID,99.0,VALID,2.536,
2019-02-15, 02:41:07,VALID,918.189,VALID,0.0,VALID,89.56,VALID,0.005,VALID,21.288,VALID,103.0,VALID,2.844,
2019-02-15, 02:42:07,VALID,918.198,VALID,0.0,VALID,89.337,VALID,0.007,VALID,21.338,VALID,103.0,VALID,3.094,
2019-02-15, 02:43:07,VALID,918.191,VALID,0.0,VALID,89.062,VALID,0.044,VALID,21.391,VALID,100.0,VALID,2.811,
2019-02-15, 02:44:07,VALID,918.176,VALID,0.0,VALID,89.041,VALID,0.032,VALID,21.385,VALID,101.0,VALID,2.268,
2019-02-15, 02:45:07,VALID,918.148,VALID,0.0,VALID,89.203,VALID,0.042,VALID,21.347,VALID,102.0,VALID,2.506,
2019-02-15, 02:46:07,VALID,918.122,VALID,0.0,VALID,89.105,VALID,0.04,VALID,21.374,VALID,98.0,VALID,2.335,
2019-02-15, 02:47:07,VALID,918.102,VALID,0.0,VALID,88.808,VALID,0.04,VALID,21.41,VALID,109.0,VALID,2.405,
2019-02-15, 02:48:07,VALID,918.088,VALID,0.0,VALID,88.432,VALID,0.038,VALID,21.481,VALID,106.0,VALID,1.754,
2019-02-15, 02:49:07,VALID,918.07,VALID,0.0,VALID,88.4,VALID,0.046,VALID,21.484,VALID,102.0,VALID,2.313,
2019-02-15, 02:50:07,VALID,918.073,VALID,0.0,VALID,88.386,VALID,0.055,VALID,21.466,VALID,120.0,VALID,1.494,
2019-02-15, 02:51:07,VALID,918.084,VALID,0.0,VALID,88.527,VALID,0.055,VALID,21.45,VALID,110.0,VALID,1.78,
2019-02-15, 02:52:07,VALID,918.119,VALID,0.0,VALID,88.531,VALID,0.052,VALID,21.451,VALID,101.0,VALID,1.688,
2019-02-15, 02:53:07,VALID,918.128,VALID,0.0,VALID,88.485,VALID,0.042,VALID,21.454,VALID,132.0,VALID,1.27,
2019-02-15, 02:54:07,VALID,918.146,VALID,0.0,VALID,88.504,VALID,0.031,VALID,21.45,VALID,100.0,VALID,1.824,
2019-02-15, 02:55:07,VALID,918.17,VALID,0.0,VALID,88.606,VALID,0.038,VALID,21.451,VALID,105.0,VALID,1.821,
2019-02-15, 02:56:07,VALID,918.172,VALID,0.0,VALID,88.797,VALID,0.046,VALID,21.412,VALID,103.0,VALID,1.759,
2019-02-15, 02:57:07,VALID,918.16,VALID,0.0,VALID,88.894,VALID,0.031,VALID,21.392,VALID,99.0,VALID,2.112,
2019-02-15, 02:58:07,VALID,918.157,VALID,0.0,VALID,88.853,VALID,0.015,VALID,21.411,VALID,105.0,VALID,2.196,
2019-02-15, 02:59:07,VALID,918.155,VALID,0.0,VALID,88.721,VALID,0.013,VALID,21.453,VALID,101.0,VALID,1.868,
2019-02-15, 03:00:07,VALID,918.157,VALID,0.0,VALID,88.673,VALID,0.013,VALID,21.458,VALID,103.0,VALID,2.343,
2019-02-15, 03:01:07,VALID,918.145,VALID,0.0,VALID,88.471,VALID,0.02,VALID,21.5,VALID,100.0,VALID,2.547,
2019-02-15, 03:02:07,VALID,918.147,VALID,0.0,VALID,88.156,VALID,0.028,VALID,21.555,VALID,106.0,VALID,2.768,
2019-02-15, 03:03:07,VALID,918.144,VALID,0.0,VALID,88.009,VALID,0.023,VALID,21.602,VALID,103.0,VALID,2.068,
2019-02-15, 03:04:07,VALID,918.113,VALID,0.0,VALID,88.075,VALID,0.019,VALID,21.593,VALID,102.0,VALID,2.118,
2019-02-15, 03:05:07,VALID,918.102,VALID,0.0,VALID,88.008,VALID,0.017,VALID,21.607,VALID,103.0,VALID,1.839,
2019-02-15, 03:06:07,VALID,918.107,VALID,0.0,VALID,88.002,VALID,0.011,VALID,21.607,VALID,92.0,VALID,2.009,
2019-02-15, 03:07:07,VALID,918.107,VALID,0.0,VALID,88.088,VALID,0.026,VALID,21.598,VALID,90.0,VALID,2.389,
2019-02-15, 03:08:07,VALID,918.103,VALID,0.0,VALID,88.05,VALID,0.022,VALID,21.605,VALID,95.0,VALID,2.559,
2019-02-15, 03:09:07,VALID,918.106,VALID,0.0,VALID,87.891,VALID,0.014,VALID,21.631,VALID,98.0,VALID,2.22,
2019-02-15, 03:10:07,VALID,918.107,VALID,0.0,VALID,88.039,VALID,0.015,VALID,21.622,VALID,93.0,VALID,2.178,
2019-02-15, 03:11:07,VALID,918.129,VALID,0.0,VALID,88.002,VALID,0.006,VALID,21.608,VALID,91.0,VALID,2.463,
2019-02-15, 03:12:07,VALID,918.144,VALID,0.0,VALID,88.056,VALID,0.008,VALID,21.618,VALID,100.0,VALID,2.404,
2019-02-15, 03:13:07,VALID,918.152,VALID,0.0,VALID,88.118,VALID,0.014,VALID,21.621,VALID,100.0,VALID,2.627,
2019-02-15, 03:14:07,VALID,918.183,VALID,0.0,VALID,87.941,VALID,0.028,VALID,21.644,VALID,96.0,VALID,2.367,
2019-02-15, 03:15:07,VALID,918.185,VALID,0.0,VALID,87.904,VALID,0.023,VALID,21.667,VALID,106.0,VALID,2.465,
2019-02-15, 03:16:07,VALID,918.205,VALID,0.0,VALID,87.784,VALID,0.027,VALID,21.689,VALID,98.0,VALID,2.195,
2019-02-15, 03:17:07,VALID,918.236,VALID,0.0,VALID,87.758,VALID,0.022,VALID,21.698,VALID,95.0,VALID,2.813,
2019-02-15, 03:18:07,VALID,918.234,VALID,0.0,VALID,87.775,VALID,0.027,VALID,21.705,VALID,83.0,VALID,2.057,
2019-02-15, 03:19:07,VALID,918.248,VALID,0.0,VALID,88.187,VALID,0.039,VALID,21.661,VALID,84.0,VALID,2.006,
2019-02-15, 03:20:07,VALID,918.255,VALID,0.0,VALID,88.408,VALID,0.011,VALID,21.614,VALID,83.0,VALID,1.895,
2019-02-15, 03:21:07,VALID,918.257,VALID,0.0,VALID,88.656,VALID,0.018,VALID,21.578,VALID,88.0,VALID,2.073,
2019-02-15, 03:22:07,VALID,918.244,VALID,0.0,VALID,88.597,VALID,0.022,VALID,21.572,VALID,90.0,VALID,2.109,
2019-02-15, 03:23:07,VALID,918.259,VALID,0.0,VALID,88.507,VALID,0.027,VALID,21.592,VALID,87.0,VALID,2.214,
2019-02-15, 03:24:07,VALID,918.261,VALID,0.0,VALID,88.433,VALID,0.02,VALID,21.605,VALID,90.0,VALID,2.213,
2019-02-15, 03:25:07,VALID,918.283,VALID,0.0,VALID,88.51,VALID,0.017,VALID,21.601,VALID,88.0,VALID,1.934,
2019-02-15, 03:26:07,VALID,918.265,VALID,0.0,VALID,88.493,VALID,0.022,VALID,21.594,VALID,103.0,VALID,2.351,
2019-02-15, 03:27:07,VALID,918.277,VALID,0.0,VALID,88.197,VALID,0.015,VALID,21.638,VALID,104.0,VALID,2.051,
2019-02-15, 03:28:07,VALID,918.288,VALID,0.0,VALID,87.789,VALID,0.027,VALID,21.685,VALID,112.0,VALID,1.906,
2019-02-15, 03:29:07,VALID,918.309,VALID,0.0,VALID,87.472,VALID,0.002,VALID,21.748,VALID,108.0,VALID,1.661,
2019-02-15, 03:30:07,VALID,918.288,VALID,0.0,VALID,87.208,VALID,0.012,VALID,21.795,VALID,101.0,VALID,1.435,
2019-02-15, 03:31:06,VALID,918.3,VALID,0.0,VALID,87.277,VALID,0.018,VALID,21.785,VALID,99.0,VALID,1.252,
2019-02-15, 03:32:06,VALID,918.289,VALID,0.0,VALID,87.403,VALID,0.011,VALID,21.765,VALID,98.0,VALID,1.244,
2019-02-15, 03:33:06,VALID,918.279,VALID,0.0,VALID,87.726,VALID,0.022,VALID,21.729,VALID,104.0,VALID,1.248,
2019-02-15, 03:34:06,VALID,918.256,VALID,0.0,VALID,88.001,VALID,0.019,VALID,21.696,VALID,110.0,VALID,0.981,
2019-02-15, 03:35:06,VALID,918.255,VALID,0.0,VALID,87.919,VALID,0.023,VALID,21.681,VALID,104.0,VALID,1.285,
2019-02-15, 03:36:06,VALID,918.237,VALID,0.0,VALID,87.724,VALID,0.031,VALID,21.688,VALID,99.0,VALID,0.941,
2019-02-15, 03:37:06,VALID,918.215,VALID,0.0,VALID,87.888,VALID,0.022,VALID,21.69,VALID,102.0,VALID,1.364,
2019-02-15, 03:38:06,VALID,918.2,VALID,0.0,VALID,87.748,VALID,0.017,VALID,21.701,VALID,96.0,VALID,1.798,
2019-02-15, 03:39:06,VALID,918.215,VALID,0.0,VALID,87.415,VALID,0.023,VALID,21.737,VALID,101.0,VALID,2.013,